ONEWEB-0087, 45451

Orbit data source: Space-Track

ONEWEB-0087, 45451 is a payload satellite owned by One Web (UK) in LEO that was launched on Sat, 21 Mar 2020 UTC via a SOYUZ-2-1B launch vehicle from the Tyuratam Missile And Space Complex (TTMTR). Payload-class satellites include a variety of spacecraft equipped with specific instruments for various scientific and technological missions. These include communications satellites like Starlink; space stations such as the ISS; scientific satellites like the Hubble; Earth observation satellites from companies like Planet Labs, Umbra, and HawkEye 360; GPS; miniature CubeSats for education and research; and military/defense satellites.

Loading next visibility...
Identifier
45451, 2020-020AD
Orbit
LEO
Country
Flag of UKUK
Related business
Manufacturer
One Web
Mission
Operational Commercial Communications
Bus & Motor
ARROW, Unknown motor
Mass
148 kg wet, ~140 kg dry
Launch date (UTC)
2020-03-21 (5 years ago)
Launch vehicle
SOYUZ-2-1B
Launch site
Tyuratam Missile And Space Complex (TTMTR)
Object type
Payload
Rocket body
Debris
Shape & HBR
Trap Box + 2 Pan, 2.5 m
Radar Cross Section
2.957 m², Large (>1 m²)

Expand to show TLE details & history
Last TLE update: 14 hours ago

TLE from 14 hours ago
0 ONEWEB-0087
1 45451U 20020AD  25260.95699018  .00000041  00000-0  78965-4 0  9999
2 45451  87.8788  75.2367 0001536  79.9539 280.1762 13.11416276266905
Epoch: 2025-09-17T22:58Z
TLE epoch observation values (Epoch: 2025-09-17T22:58:03.951Z)
Latitude
-0.00005°
Longitude
93.59474°
Altitude
1,220.368 km
Speed
7.244 km/s
True Right ascension
05h 00m 56s
True Declination
0° 00' 00"
Sunlit
Object was in daylight at epoch
Visualization orbit readout
Latitude
Unknown
Longitude
Unknown
Altitude
Unknown
Speed
Unknown
Apparent Right ascension
Unknown
Apparent Declination
Unknown
Sunlit
N/A
Visualization observer readout
Local Sidereal Time
06:03:31
Azimuth
Unknown
Elevation
Unknown
Doppler factor
Unknown
Orbital elements
Apogee altitude
1,215.97 km
Perigee altitude
1,213.637 km
Semi-major axis
7,592.941 km
Eccentricity
0.00015
Inclination
87.8788°
RAAN
75.2367°
Arg. of periapsis
79.9539°
True anomaly
280.15888°
Mean anomaly
280.1762°
Eccentric anomaly
280.16754°
Mean motion
3.28041 °/min
Orbital period
109.74 mins
BSTAR
0.000078965
Loading maneuver chart data...
Computing Atmospheric mass density...
Loading historical data...
Loading historical data...
Loading historical data...
Loading historical data...
Loading historical data...
Loading historical data...
Loading historical data...

Documentation

Showing up to 5 results
|